Regional Weather Roundup
Issued by NWS Midland/Odessa, TX

Skip options and go directly to product.
Home | Oldest Version | Previous Version | Current Version | All | Graphics & Text | Save Text | Print | Product List | Glossary On

Skip product version selection by date and time.   
742
ASUS44 KMAF 250610
RWRMAF
MIDLAND AREA WEATHER ROUNDUP
NATIONAL WEATHER SERVICE MIDLAND TX
100 AM CDT FRI APR 25 2014

...IN SOUTHWEST TEXAS AND SOUTHEAST NEW MEXICO...

CITY           SKY/WX    TMP DP  RH WIND       PRES   REMARKS
ALPINE         FAIR      56  16  20 SW3       30.12S
ANDREWS        FAIR      59  32  35 S6        29.98S
ARTESIA        CLEAR     57  23  26 SW12      29.98S
BIG SPRING     FAIR      63  29  28 E9        29.98F
CARLSBAD       CLEAR     66  20  17 S12       29.96F
DRYDEN         NOT AVBL
FORT STOCKTON  FAIR      62  27  26 S8        29.99S
GUAD PASS      CLEAR     60  16  18 NE10      30.09F
HOBBS          FAIR      54  23  30 S6        30.01S
MARFA          FAIR      52  12  20 N7        30.11S
MIDLAND AIRPK  FAIR      65  29  25 SE6       29.98S
MIDLAND INTL   FAIR      62  31  31 SE7       29.97F
ODESSA         FAIR      63  28  26 MISG      29.98F
PECOS          FAIR      56  37  47 SW7       29.97S
PRESIDIO       FAIR      76  18  11 NE14G23   29.94R
SEMINOLE       FAIR      56  31  39 S7        29.99F
SNYDER         FAIR      60  27  28 E8        29.98F
WINK           FAIR      62  30  29 SE7       29.96R
$$
...OTHER STATIONS IN TEXAS...

CITY           SKY/WX    TMP DP  RH WIND       PRES   REMARKS
ABILENE        FAIR      57  40  52 S6        29.97S
AMARILLO       FAIR      56  17  21 SE13      29.98F
AUSTIN         FAIR      67  59  75 E5        29.93R
BROWNSVILLE    CLOUDY    71  71 100 SE3       29.88S
CORPUS CHRISTI CLOUDY    74  70  87 SE8       29.89S
DALLAS FTW     MOCLDY    64  44  48 NE5       29.95R
DEL RIO        FAIR      75  27  17 E7        29.91R
EL PASO        CLEAR     68  18  14 S8        29.97F
HOUSTON INT    FAIR      71  68  90 CALM      29.91F
LUBBOCK        FAIR      58  24  27 SE9       29.98F
SAN ANGELO     FAIR      60  30  32 S3        29.96S
SAN ANTONIO    FAIR      71  66  84 SE5       29.93S
WACO           FAIR      61  45  55 NW5       29.94S
WICHITA FALLS  NOT AVBL
$$
...OTHER LOCATIONS IN NEW MEXICO...

CITY           SKY/WX    TMP DP  RH WIND       PRES   REMARKS
ALAMAGORDO     CLEAR     61  10  13 SE9       29.97F
ALBUQUERQUE    CLEAR     56   8  14 E3        30.02S
CANNON AFB     CLEAR     53  24  32 S7        30.01R
CLOVIS         CLEAR     50  25  37 S7        30.04S
HOLLOMAN AFB   CLEAR     62  12  14 S6        29.96F
ROSWELL        CLEAR     57  21  24 S9        29.96F
RUIDOSO        CLEAR     48   5  17 S6        30.13S
SANTA FE       CLEAR     40  -2  17 NE9       30.06F WCI  34
TRUTH OR CONSE CLEAR     59  12  15 SW5       29.99S
TUCUMCARI      CLEAR     59  21  23 SW16      29.95F
$$

USA.gov is the U.S. government's official web portal to all federal, state and local government web resources and services.